Location: Sternwarte_Laufen
(47.9344°N, 12.9346°E)
Time: 19:41:39
(UTC+02:00)

ISS - Pass Details

Date: 21 May 2018
Orbit: 402 x 407 km, 51.6° (Epoch: 27 May)

Event Time Altitude Azimuth Distance (km) Brightness Sun altitude
Rises 03:56:48 0° 292° (WNW) 2,321 -0.2 -11.8°
Reaches altitude 10° 03:58:54 10° 288° (WNW) 1,459 -1.2 -11.6°
Maximum altitude 04:02:05 52° 211° (SSW) 507 -3.7 -11.2°
Drops below altitude 10° 04:05:16 10° 133° (SE) 1,452 -1.0 -10.8°
Sets 04:07:22 0° 129° (SE) 2,308 0.1 -10.6°
